Content
SEND FEEDBACK

Daily
Averages
Monthly
Summary
Greece

ANDRAVIDHA, GREECE


Home > Europe > Greece
Elevation: 50 feet     Latitude: 37 55N     Longitude: 021 17E

WEATHER
 
SELECT A DAY
Number of Records: 94,301;   Date Range: 7/11/96 - 11/23/14
 
SHARE

PRINT THIS DATA

[ ← Previous Day ]
WEATHER ALMANAC - FEBRUARY 8, 2013
[ Next Day → ]
[ °C ]   °F
Weather ElementAverageHighLow
Temperature47.6 °F54 °F (2:00 pm)44.6 °F (9:50 am)
Dewpoint41.7 °F44.6 °F (11:50 am)39.2 °F (4:20 pm)
Humidity79.5 %93 % (10:50 am)51 % (2:00 pm)
Barometer29.63 in29.74 in (10:50 pm)29.56 in (4:50 am)
Wind Speed6 mph11.5 mph (2:20 pm)
Weather ElementAverage
Visibility6.1 mi
Wind DirectionSE (133.3 °)

Weather ElementTotal
Precipitation---
Heating Degree Days15.7 (Base 65)
Averaged from 43 records on February 8, 2013
WEATHER CONDITIONS BREAKOUT
WIND DIRECTION BREAKOUT
WEATHER BY HOUR - FEBRUARY 8, 2013
[ °C ]   °F
Local TimeTemperatureDewpointHumidityBarometerVisibilityWind DirectionWind SpeedGust SpeedPrecipitationEventsConditions
12:50 AM46.4 °F41.0 °F81 %29.59 in6.2 miSE (140°)6.9 mphMostly Cloudy
1:20 AM46.4 °F41.0 °F81 %29.59 in6.2 miCalmMostly Cloudy
1:50 AM48.2 °F42.8 °F82 %29.59 in6.2 miESE (110°)5.8 mphMostly Cloudy
2:00 AM47.0 °F42.0 °F77 %29.60 in6.0 miESE (110°)5.8 mphPartly Cloudy
2:50 AM46.4 °F42.8 °F87 %29.59 in6.2 miESE (110°)6.9 mphRainLight Rain
3:20 AM46.4 °F42.8 °F87 %29.59 in6.2 miSE (130°)4.6 mphMostly Cloudy
4:50 AM46.4 °F42.8 °F87 %29.56 in6.2 miESE (110°)8.1 mphMostly Cloudy
5:50 AM46.4 °F42.8 °F87 %29.56 in6.2 miSSE (160°)4.6 mphMostly Cloudy
6:50 AM46.4 °F41.0 °F81 %29.56 in6.2 miSSE (160°)4.6 mphMostly Cloudy
7:20 AM46.4 °F41.0 °F81 %29.56 in6.2 miSSE (160°)4.6 mphMostly Cloudy
7:50 AM46.4 °F41.0 °F81 %29.59 in6.2 miSE (130°)9.2 mphMostly Cloudy
8:20 AM46.4 °F41.0 °F81 %29.59 in6.2 miSE (130°)9.2 mphMostly Cloudy
8:50 AM46.4 °F41.0 °F81 %29.59 in6.2 miSSE (150°)4.6 mphRainLight Rain
9:20 AM46.4 °F41.0 °F81 %29.59 in6.2 miSSE (150°)4.6 mphRainLight Rain
9:50 AM44.6 °F41.0 °F87 %29.62 in5.0 miSE (140°)6.9 mphRainLight Rain
10:20 AM44.6 °F41.0 °F87 %29.62 in5.0 miSE (140°)6.9 mphRainLight Rain
10:50 AM44.6 °F42.8 °F93 %29.62 in6.2 miSE (140°)4.6 mphOvercast
11:20 AM44.6 °F42.8 °F93 %29.62 in6.2 miSE (140°)4.6 mphMostly Cloudy
11:50 AM50.0 °F44.6 °F82 %29.65 in6.2 miESE (110°)6.9 mphScattered Clouds
12:50 PM53.6 °F42.8 °F67 %29.62 in6.2 miSouth (190°)4.6 mphScattered Clouds
1:20 PM51.8 °F41.0 °F67 %29.62 in6.2 miSouth (180°)4.6 mphScattered Clouds
1:50 PM53.6 °F41.0 °F62 %29.62 in6.2 miSSE (150°)6.9 mphScattered Clouds
2:00 PM54.0 °F41.0 °F51 %29.64 in6.0 miSSE (150°)6.9 mphPartly Cloudy
2:20 PM51.8 °F42.8 °F71 %29.62 in6.2 miSE (130°)11.5 mphMostly Cloudy
2:50 PM53.6 °F42.8 °F67 %29.62 in6.2 miSE (140°)11.5 mphMostly Cloudy
3:20 PM53.6 °F41.0 °F62 %29.62 in6.2 miSSE (150°)9.2 mphThunderstormThunderstorm
3:50 PM51.8 °F41.0 °F67 %29.62 in6.2 miSSE (160°)4.6 mphThunderstormThunderstorm
4:20 PM50.0 °F39.2 °F66 %29.65 in6.2 miSSW (200°)11.5 mphRain-ThunderstormLight Thunderstorms and Rain
4:50 PM46.4 °F42.8 °F87 %29.65 in6.2 miSouth (190°)6.9 mphRain-ThunderstormLight Thunderstorms and Rain
5:20 PM50.0 °F42.8 °F76 %29.65 in6.2 miCalmScattered Clouds
5:50 PM48.2 °F42.8 °F82 %29.65 in6.2 miCalmScattered Clouds
6:20 PM48.2 °F42.8 °F82 %29.65 in6.2 miCalmScattered Clouds
6:50 PM46.4 °F41.0 °F81 %29.68 in6.2 miSSE (160°)6.9 mphScattered Clouds
7:20 PM46.4 °F41.0 °F81 %29.68 in6.2 miSSE (160°)6.9 mphScattered Clouds
7:50 PM44.6 °F41.0 °F87 %29.68 in6.2 miSSE (150°)6.9 mphScattered Clouds
8:00 PM45.0 °F41.0 °F82 %29.71 in6.0 miSSE (150°)6.9 mphPartly Cloudy
8:20 PM44.6 °F41.0 °F87 %29.68 in6.2 miSSE (150°)6.9 mphScattered Clouds
8:50 PM46.4 °F41.0 °F81 %29.71 in6.2 miSSE (160°)6.9 mphScattered Clouds
9:20 PM46.4 °F41.0 °F81 %29.71 in6.2 miSSE (160°)6.9 mphScattered Clouds
9:50 PM44.6 °F41.0 °F87 %29.71 in6.2 miSSE (150°)4.6 mphRainLight Rain
10:20 PM44.6 °F41.0 °F87 %29.71 in6.2 miSSE (150°)4.6 mphMostly Cloudy
10:50 PM46.4 °F41.0 °F81 %29.74 in6.2 miSE (140°)6.9 mphMostly Cloudy
11:20 PM46.4 °F41.0 °F81 %29.74 in6.2 miSE (140°)6.9 mphMostly Cloudy
Hourly data recorded from LGAD, located miles away from Andravidha, Greece







STORIES FROM OUR PARTNERS